Wind_Speed
26 27 28 26 25 25 24 24 24 23 21 21 22 24 24 23 23 23 23 24 25 26 26 27 27 27 27 27 26 26 26 26 26 27 27 28 28 29 29 30 31 32 33 34 35 35 35 36 37 38 39 40 41 42 43 43 42 41 40 39 37 37 37
28 29 29 27 26 27 26 26 27 26 23 22 23 25 25 25 25 25 25 26 27 28 28 29 28 28 29 28 28 28 28 28 28 28 29 29 30 30 31 31 32 33 35 36 37 37 37 38 39 40 41 42 43 44 44 44 44 43 41 40 38 38 38
30 30 29 28 26 27 28 28 28 27 25 24 25 27 27 27 27 27 27 28 29 30 31 30 30 31 31 30 29 29 29 29 29 30 30 31 31 32 32 33 34 35 36 38 39 39 40 40 40 41 42 44 45 45 45 45 44 43 42 40 39 38 38
32 32 31 30 28 27 30 30 30 30 30 28 28 29 30 29 29 29 30 30 31 32 32 32 33 33 33 32 31 31 31 31 31 32 32 32 33 33 34 34 36 36 38 39 40 40 41 42 42 42 44 46 47 46 46 46 45 43 42 41 41 40 39
35 35 33 33 31 30 31 33 33 34 34 33 32 32 32 32 32 31 31 32 33 34 34 35 35 35 34 33 33 33 33 33 33 33 34 34 34 35 35 36 37 38 39 40 41 42 43 43 44 44 45 47 48 48 48 48 47 45 44 43 42 42 42
38 36 35 35 34 32 33 34 35 36 37 36 34 34 35 35 34 33 33 34 35 36 36 37 36 36 35 35 35 35 35 35 35 35 35 36 36 36 37 38 38 39 41 42 43 44 45 45 46 46 46 48 49 50 50 49 49 47 45 44 44 44 45
38 38 39 38 35 34 34 35 36 36 38 38 37 36 36 36 36 35 35 36 36 37 38 38 38 37 37 37 37 37 37 37 37 37 37 38 38 38 39 39 40 41 42 43 44 46 47 47 48 48 49 49 50 52 51 50 50 49 47 46 45 46 47
38 40 42 39 37 36 36 37 37 37 38 39 39 38 38 38 37 37 37 37 38 39 39 39 39 39 39 39 39 39 39 39 39 39 39 40 40 41 41 41 42 43 44 45 46 48 49 49 49 50 50 51 52 53 53 52 51 50 49 48 47 48 49
40 42 44 42 38 38 40 40 39 38 39 39 39 40 41 40 39 39 39 39 39 40 40 41 41 41 41 41 41 42 42 41 41 41 42 42 43 43 43 43 44 45 45 47 48 50 50 50 51 51 51 52 54 55 54 53 52 51 51 50 49 49 50
45 43 46 45 41 41 43 42 40 41 42 42 42 43 43 42 41 41 41 41 41 41 42 42 43 43 43 43 44 44 44 44 44 44 44 45 45 45 45 45 45 46 47 48 50 51 52 52 53 53 53 54 55 56 56 54 54 53 52 51 50 51 52
50 46 48 48 43 43 45 44 43 44 44 45 45 45 46 45 45 45 44 43 42 42 43 44 45 45 45 46 46 46 46 46 46 47 47 47 48 48 48 47 47 48 48 49 51 53 54 54 55 56 56 55 56 58 57 56 55 54 53 53 52 53 54
56 51 51 51 46 45 46 46 47 47 47 48 47 47 48 47 47 47 46 45 44 44 45 46 47 47 48 48 49 49 49 49 49 49 49 50 50 50 50 49 49 51 51 51 51 54 56 57 57 58 58 57 58 58 59 57 55 54 54 53 53 54 55
59 54 54 54 50 49 49 50 50 49 49 50 49 49 50 49 49 50 49 48 47 48 49 48 49 50 50 50 51 51 51 51 52 52 52 52 52 53 53 52 52 53 54 54 53 55 57 58 59 59 60 60 59 60 60 58 56 56 54 54 55 55 55
61 57 58 58 54 53 53 51 52 52 52 52 52 52 52 52 52 51 51 51 50 52 52 51 51 52 52 53 53 53 53 53 54 54 54 54 55 55 55 54 54 55 56 56 56 56 57 58 60 61 62 62 61 61 61 60 58 57 56 56 56 55 56
62 60 62 62 58 57 57 54 53 54 55 55 55 54 54 55 55 54 54 54 53 54 54 53 54 55 55 55 55 55 55 55 56 56 56 57 57 57 57 57 57 56 57 58 59 59 59 59 60 62 63 64 63 62 61 60 59 58 57 56 53 53 58
63 61 63 64 61 59 59 57 57 57 57 57 57 56 55 56 57 57 56 56 55 55 55 56 57 57 58 58 57 57 57 57 58 58 58 59 59 60 60 59 59 59 59 60 61 61 61 60 61 62 63 65 64 63 61 61 60 59 57 54 51 55 61
65 63 64 63 61 59 58 58 58 59 59 59 59 58 56 57 59 59 58 58 57 56 57 59 60 60 61 60 60 59 59 59 59 60 60 61 61 62 62 62 61 61 61 61 62 62 62 62 61 61 62 64 65 65 63 62 61 60 58 55 55 59 63
71 69 69 69 67 65 63 62 61 61 61 61 60 59 59 59 60 60 60 60 59 59 59 62 63 63 62 61 61 61 61 61 61 61 62 63 63 64 64 64 64 64 64 64 64 64 64 63 62 62 62 63 65 65 64 63 62 62 60 60 60 63 64
74 74 74 74 73 71 69 68 65 63 62 61 60 60 60 60 61 62 62 62 61 61 62 64 65 64 62 61 62 63 63 62 62 63 64 64 65 65 65 66 66 66 66 66 66 66 65 65 64 64 63 63 63 64 65 64 64 63 62 62 63 64 65
77 78 77 76 75 74 73 71 69 67 66 64 63 64 62 61 62 63 63 64 64 64 65 67 68 66 64 63 64 64 64 64 65 65 66 66 67 67 67 68 69 69 68 68 68 68 67 67 67 66 65 64 63 64 64 65 65 65 64 64 65 66 66
79 80 78 76 76 76 75 74 72 70 68 67 67 68 66 65 66 66 66 66 67 66 67 69 70 68 67 66 65 65 65 66 67 67 67 68 68 69 69 70 71 71 70 70 70 70 70 69 69 68 67 66 65 64 65 65 66 66 65 66 67 67 68
80 82 80 78 79 80 77 76 76 73 71 69 69 69 68 68 69 69 68 69 70 70 70 72 72 70 67 66 66 66 67 67 68 69 69 69 70 71 72 72 73 73 73 72 72 72 72 71 70 69 68 67 67 66 66 66 67 67 67 67 68 69 69
82 84 84 83 84 84 81 78 78 78 74 71 71 71 70 70 70 70 70 71 72 73 73 73 73 71 68 67 67 67 67 68 69 70 71 71 72 73 74 75 75 75 75 74 74 73 73 73 72 70 69 69 69 68 67 67 68 69 69 69 69 70 71
87 86 87 88 86 86 84 80 79 80 78 75 74 73 72 72 72 71 72 73 75 75 75 74 73 71 71 71 70 68 68 69 70 71 73 74 74 75 77 77 78 77 77 76 75 74 74 73 72 72 71 70 70 70 69 69 69 70 71 72 72 72 72
91 89 89 89 89 89 86 80 79 82 81 78 76 75 75 76 74 73 74 75 77 77 76 75 74 74 74 74 72 70 70 71 72 73 74 76 77 78 80 80 80 80 79 77 76 75 73 72 71 72 72 71 71 71 71 70 71 72 73 74 74 73 73
93 91 90 90 93 94 87 79 80 84 83 80 78 77 78 78 76 75 75 77 79 79 78 77 77 76 76 75 73 72 73 73 73 74 75 77 79 80 82 82 83 82 80 79 77 74 72 71 71 71 72 72 72 72 72 72 72 73 74 75 75 75 74
92 93 92 93 96 95 87 82 85 87 84 82 81 80 80 80 79 77 77 78 81 81 80 80 79 78 77 76 74 75 75 75 75 75 76 78 80 81 83 84 84 83 81 79 76 73 71 71 71 72 72 72 72 73 73 73 73 74 75 75 76 76 75
93 94 93 94 95 92 86 87 91 90 86 84 82 81 82 83 81 78 77 80 82 82 81 81 81 79 77 76 76 77 77 77 77 77 77 79 80 80 82 82 81 80 80 78 75 73 73 73 73 73 72 72 72 73 74 74 74 74 75 76 77 78 77
93 93 93 94 92 88 88 92 94 92 88 85 83 81 80 80 79 78 77 77 78 79 81 82 81 79 78 77 78 78 78 78 77 77 78 78 78 79 80 78 74 74 76 77 76 76 74 73 73 73 73 73 73 74 74 74 74 74 75 77 78 79 79
89 89 92 93 90 86 87 92 94 92 89 87 85 83 81 80 80 79 79 79 79 81 83 83 82 80 80 80 80 79 79 78 78 77 77 77 77 77 76 72 70 72 75 76 77 77 76 74 74 74 74 74 74 73 73 73 74 75 76 78 79 79 80
86 87 90 92 92 91 91 93 94 93 91 89 86 85 85 85 84 83 83 83 83 83 83 82 82 82 82 82 81 80 79 78 78 77 77 76 76 75 72 70 70 73 77 78 78 77 76 75 75 75 75 75 74 73 73 74 74 76 78 79 80 81 82
80 86 88 88 89 93 94 95 96 96 94 92 90 89 87 87 88 88 88 86 84 82 82 82 83 84 84 84 83 81 80 79 79 78 77 77 77 76 74 72 73 76 78 79 78 77 76 76 76 76 76 75 74 74 74 74 76 77 79 80 81 83 84
67 73 77 79 83 87 91 93 95 97 96 96 94 93 91 88 87 86 86 84 83 82 81 82 83 84 84 84 83 81 80 79 79 79 79 78 78 77 76 74 75 77 78 78 77 76 76 77 77 76 76 76 75 75 75 76 77 78 80 82 84 85 86
54 54 59 66 70 75 82 88 92 95 96 97 96 96 95 93 89 85 82 82 82 81 81 82 83 83 83 82 81 80 80 80 79 79 79 79 78 76 75 75 75 76 77 77 77 76 77 78 78 77 77 77 77 77 77 78 79 80 82 85 86 87 87
48 49 53 56 58 62 69 76 82 88 93 95 96 97 96 95 93 90 87 85 83 82 81 82 83 83 82 81 80 80 79 79 78 78 77 77 76 75 74 75 75 75 76 77 77 77 78 79 78 77 78 79 79 78 78 79 80 82 85 87 89 89 89
36 39 44 46 50 60 70 74 77 83 88 91 93 93 93 93 92 91 89 86 84 82 82 82 82 82 81 80 80 79 77 76 77 77 76 76 75 74 73 73 74 74 76 77 78 78 78 77 77 78 79 80 80 80 80 80 81 84 87 89 91 91 91
25 29 31 35 45 60 73 77 77 78 79 81 83 85 87 89 89 88 88 87 85 84 83 81 81 80 79 79 78 77 76 75 76 76 75 75 75 74 73 73 73 75 76 76 75 75 74 74 76 78 79 80 81 82 82 82 84 87 90 92 92 92 91
32 34 37 42 51 61 68 69 66 62 62 64 68 72 75 79 81 83 84 85 84 83 82 81 80 79 78 78 77 76 75 74 74 74 74 74 74 73 73 72 72 72 72 71 71 71 72 74 76 77 78 81 83 84 85 85 87 89 92 93 94 92 91
Wind_Direction
233 234 236 237 237 239 241 240 240 243 247 249 253 260 263 265 267 270 274 277 281 284 287 290 292 295 298 300 304 307 308 310 312 314 316 318 320 322 323 323 322 322 321 320 320 322 323 324 325 326 327 329 330 330 328 326 325 323 320 319 319 317 316
236 236 238 240 240 242 243 243 244 247 251 253 255 261 265 268 271 273 275 278 281 284 286 289 292 294 296 299 302 304 306 308 310 313 314 316 318 320 321 321 320 320 319 318 318 320 321 322 323 325 326 328 328 329 328 326 325 323 321 318 319 319 318
237 240 240 241 242 244 247 247 246 248 254 257 257 261 265 268 271 274 275 278 281 283 286 289 291 293 295 297 300 302 304 306 309 310 312 313 315 317 318 318 317 317 316 315 317 319 319 320 322 324 325 326 327 327 326 324 324 323 321 319 319 319 319
237 240 241 243 242 244 247 249 248 250 255 259 259 261 265 267 270 272 275 278 280 283 286 289 290 292 294 296 298 300 302 305 307 308 309 311 312 313 314 315 314 314 314 314 315 317 318 319 321 322 323 324 325 326 324 323 323 323 321 318 317 317 317
239 239 240 243 243 243 246 250 252 254 257 258 260 263 266 268 270 272 274 277 280 283 286 288 289 291 294 295 297 299 301 303 304 306 307 308 309 311 311 311 311 311 312 313 314 316 317 318 319 320 322 323 323 324 324 323 323 323 321 318 316 316 315
241 241 241 241 243 244 248 252 255 258 259 259 262 266 267 269 271 272 274 276 279 283 285 287 289 291 293 294 296 298 300 301 302 303 304 306 307 308 308 308 308 309 310 312 314 315 316 317 318 318 320 321 322 323 323 323 323 322 321 319 316 315 315
242 244 245 243 243 244 248 251 253 256 258 259 262 267 269 271 273 273 274 276 278 281 284 286 288 289 291 293 295 297 297 298 300 301 302 303 304 305 305 306 307 308 310 312 313 314 315 316 316 317 319 320 321 322 323 322 322 322 320 319 317 316 316
242 244 248 247 246 247 248 249 250 253 255 256 258 265 270 272 273 273 274 275 277 280 283 285 286 288 290 292 294 295 295 296 298 300 300 300 301 302 303 304 306 307 310 311 312 313 313 314 315 316 317 319 320 321 322 322 321 321 320 319 318 317 316
244 243 249 250 249 250 251 251 252 253 255 256 258 264 270 271 272 273 274 275 277 279 282 284 285 287 289 291 292 293 294 295 297 298 298 298 299 300 301 303 305 307 309 311 311 312 312 313 313 314 316 318 319 320 321 321 321 320 320 319 318 317 315
247 244 247 250 249 249 252 254 255 255 256 257 259 264 268 269 271 274 274 275 276 278 281 283 285 287 289 290 291 291 293 294 295 296 296 296 297 298 300 302 304 306 307 309 310 310 310 312 312 314 315 317 318 320 320 321 320 320 319 318 317 316 315
250 246 247 249 248 248 251 253 254 255 257 259 260 262 264 266 269 272 274 275 276 277 280 282 284 286 287 288 289 290 291 293 293 294 294 295 296 297 299 302 303 304 305 307 308 309 310 311 312 313 314 316 318 319 320 320 319 319 318 317 316 316 315
251 249 248 250 250 249 250 252 253 253 255 258 260 261 263 265 268 271 272 273 274 276 279 280 282 283 284 286 287 288 290 291 292 292 293 294 296 297 299 300 302 302 304 306 308 309 310 311 312 313 314 316 318 318 319 319 318 318 317 316 316 315 315
249 250 249 250 251 250 250 250 252 253 254 256 259 261 263 265 267 269 271 271 272 275 277 279 280 281 283 284 286 287 288 289 290 291 292 294 295 296 297 299 301 303 304 306 308 309 309 310 311 312 313 315 317 318 317 317 317 317 317 316 315 314 314
247 249 250 250 250 251 250 250 251 253 253 255 257 259 262 264 265 267 269 269 270 273 276 277 278 280 281 283 284 285 287 288 289 290 292 293 294 295 297 299 301 303 305 306 307 308 309 310 311 312 313 315 316 317 317 317 317 317 317 317 315 313 314
246 248 250 251 251 251 252 252 251 252 252 253 254 256 259 262 263 264 265 267 269 272 274 275 277 278 279 281 282 283 285 287 288 290 291 292 294 295 297 299 300 302 304 305 306 307 308 310 310 311 312 313 314 315 316 316 316 316 317 315 312 312 314
245 246 248 252 253 252 251 251 251 252 252 253 254 255 256 259 262 264 265 267 269 271 273 275 276 277 278 279 281 283 284 286 288 289 291 292 293 295 296 298 300 302 303 304 305 306 308 308 309 310 311 312 313 314 315 314 314 314 315 313 309 310 313
244 244 245 247 249 250 250 250 250 252 253 254 256 257 257 258 260 262 264 265 267 269 272 273 275 275 276 278 280 282 284 285 287 288 289 291 293 295 296 298 299 301 302 303 304 305 305 306 307 309 310 312 312 313 313 313 312 313 314 312 310 311 313
245 244 245 245 247 250 252 252 252 252 252 254 255 256 256 257 259 261 262 264 266 268 270 272 273 274 276 277 279 281 283 284 286 287 289 291 293 294 296 298 299 300 301 302 302 302 303 305 306 308 310 311 311 312 312 311 311 312 312 312 312 312 313
245 245 245 247 248 250 252 253 253 254 254 255 255 256 256 257 259 261 263 264 266 267 269 270 272 273 275 276 278 281 282 284 286 287 289 291 293 294 296 297 298 299 300 300 301 302 303 305 307 308 309 310 310 310 310 310 310 311 311 312 312 313 314
244 245 246 248 250 251 253 254 255 256 257 258 258 259 259 260 261 262 263 265 266 267 268 270 271 272 273 275 278 280 282 284 286 287 289 291 292 294 295 296 297 298 299 300 301 302 304 305 307 308 309 309 309 308 309 309 309 310 311 312 313 314 315
242 245 247 249 251 252 254 256 257 257 258 259 259 261 262 262 262 263 264 266 267 267 268 269 270 272 273 274 277 279 282 284 286 287 289 290 292 293 294 295 296 297 299 300 301 303 304 305 307 308 308 308 308 308 309 309 309 310 311 312 313 314 315
242 245 246 247 250 252 252 254 256 256 257 257 258 260 261 262 262 263 265 266 267 267 268 269 271 273 274 275 278 280 282 284 286 288 289 290 292 293 294 295 296 297 299 300 301 303 304 305 306 307 307 308 308 308 309 309 309 310 311 312 314 315 315
241 243 245 245 247 249 250 251 254 256 256 257 258 259 260 261 262 264 265 266 267 267 268 270 272 273 274 277 280 282 283 285 287 288 290 291 292 293 294 295 296 297 298 300 301 302 303 305 306 306 307 308 308 309 309 310 310 311 312 313 314 315 315
241 241 243 245 245 247 249 250 252 255 256 257 257 259 260 261 262 264 265 266 267 268 270 272 274 274 275 279 281 282 284 287 288 289 290 292 293 293 294 295 296 297 298 299 301 302 303 305 306 306 308 308 309 310 310 311 311 311 312 313 314 314 314
244 243 243 245 246 247 247 248 250 253 255 256 257 258 260 261 262 264 265 266 268 269 271 273 274 274 276 279 280 282 286 288 288 289 291 292 293 294 295 296 296 297 298 299 300 301 302 304 305 306 308 308 309 310 311 311 311 311 312 313 313 313 314
244 245 245 246 248 248 247 247 249 251 253 255 257 258 259 260 262 263 265 266 268 270 271 273 274 275 276 278 280 283 286 288 288 290 291 293 294 295 295 296 296 297 298 298 299 300 302 304 305 306 307 308 309 310 310 311 311 311 311 311 311 312 313
243 245 246 247 249 251 251 250 250 250 251 253 254 256 258 259 261 262 264 266 267 269 271 273 274 275 277 279 281 283 285 286 288 290 291 292 294 295 296 296 297 298 298 298 299 301 303 304 305 305 307 308 309 310 310 310 310 310 310 310 310 311 311
242 244 246 247 250 252 253 253 252 252 252 252 253 255 257 258 259 261 263 265 266 268 271 273 274 276 278 280 282 283 284 285 287 289 290 292 293 294 295 297 298 299 299 299 300 302 304 304 304 305 307 308 308 308 308 308 308 308 308 309 309 310 310
242 244 245 248 250 251 251 252 253 254 254 254 254 255 255 256 258 259 261 263 265 267 269 271 273 276 278 280 280 281 283 285 287 288 289 291 292 293 295 296 297 296 296 298 299 301 303 303 304 305 306 307 307 307 307 307 307 307 307 308 308 309 309
243 245 246 247 248 249 250 251 254 255 256 255 255 255 256 257 259 259 260 262 264 267 268 270 273 275 277 278 279 281 282 284 285 287 288 289 290 292 293 293 292 291 292 295 297 299 301 302 303 304 305 306 306 306 305 305 306 306 306 307 307 308 309
242 244 246 247 248 249 251 253 255 257 257 257 257 257 258 259 260 260 260 261 263 265 268 270 273 274 275 276 278 280 282 283 284 285 286 287 288 289 289 289 288 288 290 293 296 298 299 300 302 303 304 305 305 304 304 304 305 305 306 306 307 308 309
246 246 247 249 251 252 253 254 255 257 258 259 259 259 259 260 260 260 260 261 263 265 268 269 271 272 273 275 277 279 280 281 282 283 284 285 286 286 287 287 286 287 290 292 295 296 297 299 301 302 303 303 303 302 303 304 305 305 306 307 307 308 309
249 253 255 256 256 256 257 258 257 257 258 258 259 259 259 260 261 261 262 263 264 266 267 268 269 270 271 273 275 277 279 280 281 282 283 284 285 286 287 287 287 288 290 292 294 295 296 298 300 301 301 301 301 301 303 305 305 306 306 307 307 308 308
243 252 258 261 263 262 261 260 260 259 257 257 257 257 258 259 261 262 263 263 264 265 266 267 267 269 271 273 275 276 278 279 280 282 283 284 285 286 287 287 288 289 290 291 292 294 295 297 298 299 299 299 300 302 304 305 306 306 306 307 307 308 308
236 242 248 255 263 266 264 261 260 258 256 254 255 255 256 258 259 260 261 263 263 264 266 266 267 269 270 272 274 275 277 279 280 281 283 284 285 286 286 287 288 288 289 290 292 293 294 296 297 298 298 299 300 302 304 305 305 306 306 306 307 307 308
233 237 239 243 252 258 259 257 256 254 253 252 253 254 256 257 258 259 260 261 262 263 265 266 267 268 270 272 274 275 277 279 279 280 281 283 284 285 286 286 287 288 289 290 292 294 295 296 297 298 298 299 301 302 304 304 305 305 306 306 306 307 308
236 238 233 230 234 242 246 248 249 250 251 252 253 255 256 256 257 258 259 260 261 263 264 266 267 269 270 272 274 275 276 277 278 279 281 282 283 284 285 286 287 289 290 292 293 295 295 295 296 297 297 298 300 301 303 303 304 304 305 306 307 308 308
228 230 226 221 222 228 235 241 245 249 251 252 253 255 256 256 257 258 259 260 261 263 264 266 267 269 271 272 273 274 274 275 276 278 280 281 282 284 285 287 289 291 292 293 293 293 292 292 293 294 295 296 298 300 301 302 302 303 305 306 307 308 308
Height
10965 10966 10966 10967 10969 10970 10971 10972 10972 10973 10973 10974 10975 10976 10976 10976 10977 10977 10977 10977 10977 10977 10977 10977 10977 10976 10976 10975 10975 10974 10974 10973 10972 10971 10970 10969 10968 10967 10966 10965 10963 10962 10960 10958 10957 10956 10955 10953 10951 10949 10948 10946 10944 10942 10939 10937 10935 10933 10930 10928 10926 10924 10921
10963 10963 10964 10965 10967 10968 10969 10970 10970 10970 10971 10971 10972 10973 10974 10974 10974 10974 10974 10974 10975 10975 10974 10974 10974 10974 10973 10973 10972 10972 10971 10970 10970 10968 10967 10966 10965 10964 10963 10962 10960 10959 10957 10955 10954 10953 10952 10950 10948 10946 10944 10942 10940 10938 10936 10933 10931 10929 10926 10924 10922 10920 10918
10961 10961 10962 10963 10965 10966 10966 10967 10967 10968 10968 10969 10969 10970 10970 10971 10971 10971 10971 10972 10972 10972 10972 10972 10972 10971 10970 10970 10969 10969 10968 10968 10967 10966 10965 10964 10963 10962 10961 10959 10957 10956 10954 10952 10951 10950 10948 10947 10946 10943 10941 10938 10936 10935 10933 10930 10928 10925 10922 10920 10918 10916 10914
10958 10958 10959 10960 10962 10963 10963 10963 10963 10964 10965 10966 10966 10967 10967 10968 10968 10968 10968 10968 10968 10968 10968 10969 10969 10968 10968 10967 10966 10966 10966 10965 10964 10963 10962 10961 10960 10959 10958 10956 10954 10953 10951 10949 10947 10947 10945 10944 10943 10941 10938 10935 10933 10931 10929 10926 10924 10922 10919 10916 10914 10912 10910
10954 10955 10956 10957 10958 10960 10959 10959 10960 10960 10961 10962 10963 10963 10964 10964 10964 10964 10965 10965 10965 10965 10965 10965 10965 10965 10964 10964 10963 10963 10963 10962 10961 10960 10959 10958 10957 10956 10955 10953 10951 10949 10947 10946 10944 10943 10942 10940 10939 10937 10935 10932 10929 10927 10925 10922 10920 10918 10915 10912 10909 10907 10905
10950 10952 10952 10953 10954 10956 10956 10956 10957 10957 10957 10958 10959 10959 10960 10960 10961 10961 10961 10962 10961 10961 10962 10962 10962 10962 10961 10961 10960 10960 10960 10959 10958 10958 10956 10955 10954 10953 10952 10950 10948 10946 10944 10943 10941 10939 10938 10937 10934 10933 10931 10929 10926 10923 10921 10918 10915 10913 10911 10908 10905 10903 10900
10946 10947 10946 10948 10950 10952 10953 10953 10953 10953 10954 10954 10954 10955 10956 10956 10957 10957 10957 10958 10958 10958 10958 10958 10958 10958 10958 10957 10957 10957 10956 10956 10955 10954 10953 10952 10950 10949 10948 10946 10944 10943 10941 10940 10938 10936 10934 10933 10931 10928 10927 10925 10922 10919 10916 10914 10911 10908 10906 10904 10901 10898 10895
10941 10942 10940 10943 10946 10948 10949 10948 10948 10949 10950 10950 10950 10950 10952 10953 10953 10953 10954 10954 10954 10954 10954 10955 10955 10955 10954 10954 10954 10953 10953 10952 10951 10951 10949 10948 10946 10945 10944 10943 10941 10939 10938 10936 10934 10932 10930 10929 10927 10925 10923 10920 10918 10915 10912 10910 10907 10904 10901 10899 10897 10893 10890
10935 10937 10936 10938 10942 10944 10943 10944 10945 10946 10946 10946 10946 10946 10948 10949 10949 10949 10950 10950 10951 10951 10951 10951 10950 10950 10951 10950 10950 10949 10948 10948 10947 10946 10945 10943 10942 10941 10940 10939 10937 10935 10934 10933 10931 10928 10926 10925 10923 10921 10919 10917 10914 10910 10907 10905 10902 10899 10897 10895 10892 10889 10886
10928 10933 10932 10933 10938 10939 10938 10940 10942 10942 10942 10942 10943 10943 10944 10945 10945 10945 10946 10946 10947 10947 10947 10947 10946 10946 10946 10946 10945 10945 10944 10944 10943 10942 10940 10939 10937 10936 10935 10935 10933 10931 10930 10929 10927 10924 10923 10921 10918 10916 10915 10913 10909 10906 10903 10900 10897 10895 10892 10889 10887 10885 10881
10920 10927 10927 10927 10933 10934 10933 10936 10937 10938 10938 10938 10939 10939 10939 10940 10940 10940 10941 10942 10943 10943 10943 10943 10942 10942 10942 10941 10940 10940 10939 10939 10938 10937 10935 10934 10932 10931 10930 10930 10929 10927 10927 10926 10924 10920 10918 10916 10914 10911 10909 10908 10905 10901 10898 10895 10892 10889 10887 10884 10882 10879 10876
10912 10920 10920 10920 10926 10929 10929 10931 10932 10933 10934 10933 10934 10934 10934 10935 10935 10935 10937 10937 10938 10939 10939 10938 10938 10937 10937 10937 10936 10935 10935 10934 10933 10931 10930 10929 10927 10925 10925 10926 10924 10922 10922 10922 10920 10916 10913 10910 10908 10906 10903 10902 10900 10896 10893 10890 10888 10885 10883 10880 10877 10874 10871
10906 10913 10914 10914 10919 10922 10924 10925 10926 10927 10928 10928 10929 10929 10929 10930 10930 10930 10931 10932 10933 10933 10933 10933 10933 10932 10931 10931 10930 10929 10930 10929 10927 10926 10925 10923 10922 10920 10920 10920 10919 10917 10916 10916 10915 10913 10909 10906 10903 10900 10897 10896 10895 10891 10887 10885 10883 10880 10878 10875 10872 10869 10865
10902 10908 10907 10908 10913 10915 10917 10920 10921 10922 10923 10924 10925 10925 10924 10924 10925 10926 10926 10926 10927 10928 10928 10928 10927 10926 10925 10926 10925 10924 10924 10923 10922 10921 10919 10918 10916 10914 10914 10915 10914 10913 10910 10909 10908 10907 10905 10902 10898 10895 10891 10889 10888 10886 10882 10879 10876 10874 10873 10870 10866 10862 10860
10898 10902 10900 10902 10907 10909 10911 10914 10917 10917 10918 10919 10919 10920 10920 10918 10918 10920 10920 10921 10922 10922 10922 10922 10921 10920 10920 10920 10919 10919 10919 10918 10916 10915 10914 10912 10910 10909 10908 10908 10908 10908 10906 10904 10902 10901 10900 10898 10894 10890 10887 10883 10882 10881 10878 10874 10871 10869 10868 10864 10860 10857 10855
10891 10895 10895 10896 10899 10902 10905 10908 10910 10911 10912 10913 10913 10914 10915 10914 10912 10913 10914 10915 10916 10917 10916 10914 10914 10914 10913 10913 10913 10913 10913 10912 10911 10910 10908 10906 10905 10904 10903 10903 10902 10902 10902 10899 10896 10895 10894 10893 10891 10888 10883 10878 10875 10875 10873 10869 10866 10865 10865 10861 10856 10853 10850
10885 10887 10889 10889 10891 10894 10898 10901 10904 10905 10906 10907 10907 10909 10910 10909 10907 10907 10909 10909 10910 10911 10910 10907 10906 10907 10907 10907 10907 10907 10907 10906 10906 10904 10903 10901 10900 10898 10897 10896 10896 10896 10895 10894 10892 10890 10888 10888 10886 10884 10880 10875 10870 10868 10867 10864 10860 10859 10860 10857 10853 10848 10844
10877 10880 10881 10881 10883 10888 10891 10894 10897 10899 10900 10901 10901 10902 10903 10903 10902 10902 10903 10903 10904 10905 10904 10901 10899 10900 10901 10901 10901 10901 10901 10901 10900 10899 10897 10896 10894 10892 10891 10890 10889 10889 10888 10887 10886 10884 10883 10882 10880 10879 10877 10873 10867 10862 10860 10858 10855 10853 10852 10850 10847 10842 10838
10870 10871 10872 10872 10876 10881 10883 10886 10889 10892 10894 10895 10895 10896 10897 10897 10897 10897 10897 10897 10898 10899 10898 10895 10893 10894 10896 10896 10895 10895 10895 10895 10895 10893 10891 10890 10889 10887 10886 10884 10883 10882 10882 10881 10879 10878 10876 10874 10873 10872 10871 10869 10864 10859 10855 10851 10848 10847 10845 10842 10839 10836 10831
10861 10862 10864 10867 10869 10872 10874 10877 10882 10886 10887 10889 10890 10889 10891 10893 10891 10890 10891 10891 10891 10892 10892 10888 10886 10888 10890 10891 10890 10890 10890 10889 10888 10887 10886 10885 10883 10881 10880 10878 10876 10875 10875 10874 10872 10870 10868 10867 10865 10863 10862 10861 10859 10855 10851 10846 10841 10840 10839 10835 10831 10828 10824
10854 10855 10858 10862 10862 10863 10867 10869 10873 10878 10880 10882 10883 10883 10886 10887 10885 10883 10884 10884 10883 10885 10884 10881 10880 10882 10884 10885 10885 10885 10885 10884 10882 10880 10880 10879 10877 10875 10873 10871 10869 10868 10867 10867 10865 10863 10861 10860 10858 10856 10853 10851 10850 10848 10844 10840 10835 10832 10831 10828 10823 10820 10816
10848 10847 10851 10854 10852 10853 10859 10861 10863 10867 10872 10874 10876 10877 10879 10879 10878 10877 10877 10876 10875 10876 10876 10874 10874 10876 10878 10879 10879 10880 10880 10878 10876 10875 10873 10872 10871 10869 10867 10865 10863 10861 10860 10859 10859 10857 10855 10852 10851 10849 10847 10844 10841 10840 10837 10833 10828 10824 10822 10820 10817 10813 10809
10837 10837 10839 10842 10841 10842 10848 10855 10856 10857 10862 10867 10868 10869 10871 10871 10872 10872 10871 10869 10867 10867 10868 10868 10868 10869 10871 10872 10873 10874 10873 10872 10871 10869 10867 10866 10865 10863 10860 10858 10856 10854 10853 10852 10851 10850 10847 10844 10842 10840 10839 10836 10833 10831 10829 10825 10820 10815 10812 10811 10810 10807 10802
10825 10828 10827 10828 10832 10833 10837 10847 10851 10849 10852 10858 10859 10861 10863 10863 10864 10866 10864 10862 10859 10859 10861 10863 10863 10863 10864 10865 10866 10866 10867 10867 10865 10862 10860 10858 10857 10855 10852 10850 10849 10847 10846 10845 10844 10842 10840 10837 10833 10830 10829 10827 10824 10821 10819 10816 10812 10807 10803 10801 10801 10798 10795
10812 10818 10819 10820 10823 10821 10827 10841 10846 10841 10843 10848 10851 10854 10855 10854 10857 10859 10857 10855 10852 10851 10854 10856 10857 10857 10857 10857 10859 10859 10860 10860 10859 10856 10854 10851 10848 10846 10843 10841 10840 10838 10838 10837 10836 10835 10833 10830 10826 10822 10820 10818 10815 10812 10810 10807 10802 10798 10795 10792 10791 10789 10786
10803 10808 10812 10815 10810 10807 10821 10837 10837 10832 10836 10841 10842 10845 10845 10845 10849 10852 10851 10849 10846 10845 10846 10849 10849 10849 10849 10851 10852 10853 10853 10852 10851 10850 10848 10844 10840 10837 10834 10831 10829 10828 10829 10829 10827 10826 10825 10822 10819 10816 10813 10810 10807 10804 10801 10798 10794 10790 10786 10784 10782 10780 10778
10798 10799 10804 10805 10797 10800 10820 10830 10824 10823 10829 10832 10833 10837 10837 10838 10841 10844 10844 10843 10840 10838 10840 10841 10841 10841 10843 10844 10846 10846 10846 10845 10844 10844 10842 10838 10834 10830 10826 10822 10819 10818 10818 10819 10819 10817 10816 10814 10812 10810 10807 10804 10801 10797 10792 10789 10786 10782 10778 10775 10773 10771 10769
10793 10791 10794 10795 10794 10804 10818 10816 10809 10812 10819 10822 10826 10829 10829 10830 10834 10837 10838 10836 10833 10833 10834 10833 10832 10834 10836 10838 10839 10838 10838 10838 10838 10838 10836 10832 10828 10823 10819 10814 10811 10808 10807 10809 10810 10809 10808 10806 10804 10803 10801 10798 10795 10790 10785 10782 10779 10775 10771 10768 10765 10762 10760
10785 10787 10790 10790 10794 10804 10807 10800 10796 10803 10810 10815 10819 10821 10821 10824 10828 10830 10830 10829 10829 10829 10827 10825 10826 10828 10830 10831 10830 10830 10830 10831 10831 10830 10828 10825 10822 10818 10813 10809 10805 10801 10799 10800 10801 10800 10799 10798 10796 10795 10793 10791 10788 10784 10779 10775 10771 10768 10765 10761 10758 10755 10752
10780 10785 10786 10785 10787 10793 10796 10792 10791 10796 10802 10807 10811 10813 10816 10818 10819 10821 10822 10823 10823 10822 10819 10818 10820 10822 10822 10822 10821 10821 10822 10823 10824 10823 10821 10819 10816 10812 10808 10804 10800 10796 10794 10794 10794 10793 10791 10789 10787 10787 10785 10783 10781 10776 10771 10768 10764 10760 10757 10754 10751 10748 10744
10776 10778 10777 10778 10782 10786 10790 10790 10788 10790 10794 10799 10803 10806 10809 10810 10810 10812 10813 10814 10815 10815 10814 10814 10815 10815 10814 10813 10813 10814 10815 10816 10815 10815 10814 10813 10810 10807 10803 10798 10794 10790 10788 10788 10787 10786 10784 10781 10780 10779 10777 10775 10773 10769 10764 10761 10757 10753 10750 10747 10743 10740 10736
10773 10773 10773 10777 10781 10782 10783 10783 10783 10785 10788 10791 10795 10798 10799 10799 10800 10801 10803 10805 10808 10809 10810 10809 10808 10806 10805 10806 10807 10808 10808 10808 10807 10806 10806 10805 10803 10800 10797 10793 10788 10784 10783 10782 10781 10779 10777 10774 10773 10771 10769 10767 10765 10761 10757 10754 10750 10746 10742 10739 10735 10732 10727
10771 10773 10775 10777 10778 10777 10778 10778 10777 10778 10780 10782 10785 10787 10788 10788 10789 10792 10795 10798 10800 10802 10803 10802 10800 10798 10798 10799 10801 10801 10801 10800 10799 10798 10797 10796 10794 10792 10790 10787 10783 10780 10778 10776 10774 10772 10770 10768 10766 10764 10761 10758 10756 10752 10749 10745 10742 10738 10734 10731 10727 10724 10720
10767 10773 10773 10773 10773 10772 10770 10767 10766 10768 10770 10772 10774 10774 10776 10778 10781 10785 10788 10790 10792 10793 10792 10792 10791 10791 10792 10793 10794 10794 10793 10792 10791 10789 10788 10786 10785 10784 10782 10779 10777 10774 10771 10769 10767 10766 10763 10760 10759 10756 10753 10750 10747 10744 10741 10738 10734 10730 10726 10722 10718 10716 10712
10761 10765 10765 10767 10769 10767 10760 10755 10754 10755 10756 10758 10760 10762 10766 10770 10773 10777 10779 10780 10782 10783 10782 10782 10782 10783 10785 10786 10787 10786 10786 10785 10784 10782 10779 10777 10776 10776 10774 10772 10769 10767 10764 10762 10761 10759 10756 10753 10751 10749 10745 10741 10739 10736 10733 10730 10726 10722 10718 10713 10709 10706 10703
10752 10756 10757 10760 10765 10764 10754 10746 10743 10740 10740 10745 10749 10752 10757 10761 10764 10767 10769 10770 10772 10772 10772 10773 10774 10775 10777 10778 10778 10778 10779 10778 10775 10772 10770 10769 10768 10768 10766 10764 10761 10759 10756 10754 10753 10750 10747 10745 10743 10740 10736 10733 10730 10728 10726 10723 10719 10714 10709 10705 10701 10697 10693
10744 10746 10747 10751 10757 10755 10743 10733 10730 10730 10733 10738 10742 10745 10749 10753 10755 10757 10759 10760 10762 10763 10764 10765 10766 10768 10770 10770 10769 10769 10770 10769 10766 10763 10762 10761 10759 10759 10758 10755 10754 10751 10748 10746 10744 10741 10738 10736 10734 10731 10728 10724 10721 10720 10717 10715 10711 10706 10701 10696 10692 10688 10683
10736 10740 10742 10743 10745 10742 10731 10723 10724 10727 10730 10733 10736 10739 10742 10744 10746 10748 10749 10751 10753 10754 10755 10757 10759 10761 10761 10761 10760 10760 10760 10759 10757 10755 10754 10753 10751 10750 10749 10747 10745 10743 10740 10737 10736 10733 10730 10728 10726 10724 10721 10717 10714 10711 10708 10705 10702 10698 10692 10687 10683 10678 10674